Regional Weather Roundup
Issued by NWS

Home | Current Version | Previous Version | Text Only | Print | Product List | Glossary On
Versions: 1 2 3 4 5 6 7 8 9 10 11 12 13 14 15 16 17 18 19 20 21 22 23 24 25 26 27 28 29 30 31 32 33 34 35 36 37 38 39 40 41 42 43 44 45 46 47 48 49 50
000
ASUS45 KABQ 211101
RWRNM
NEW MEXICO REGIONAL WEATHER ROUNDUP
NATIONAL WEATHER SERVICE ALBUQUERQUE NM
500 AM MDT TUE MAY 21 2019

NOTE: "FAIR" MEANS FEW OR NO CLOUDS BELOW 12,000 FEET AGL WITH NO
       SIGNIFICANT WEATHER OR OBSTRUCTIONS TO VISION.

      THIS PRODUCT IS RELEASED AS TWO VERSIONS.  ONE VERSION NEAR
      THE TOP OF THE HOUR CONTAINING PRELIMINARY DATA FROM ALBUQUERQUE
      AND OTHER STATIONS.  A FINAL VERSION WITH ADDITIONAL DATA IS
      ISSUED ABOUT 10 MINUTES AFTER THE HOUR.

NMZ501-503-504-510>518-211200-
NORTHWEST PLATEAU/NORTHCENTRAL MOUNTAINS

CITY           SKY/WX    TMP DP  RH WIND       PRES   REMARKS
FARMINGTON     FAIR      36  34  92 SW6       29.74F WCI  31
LOS ALAMOS       N/A     32  32 100 CALM      29.70S
SANTA FE       CLOUDY    35  31  85 SW16G24   29.69F WCI  25
TAOS           MOCLDY    31  30  96 SW15      29.66F WCI  20
ANGEL FIRE     FLURRIES  28  24  82 SW8       29.62F WCI  20

$$
NMZ402-403-502-505>509-211200-
WESTCENTRAL MOUNTAINS/SOUTHWEST MOUNTAINS

CITY           SKY/WX    TMP DP  RH WIND       PRES   REMARKS
GALLUP         CLOUDY    36  31  82 SW10      29.83R WCI  28
GRANTS         CLOUDY    39  29  68 W17G26    29.81S WCI  29
SILVER CITY    FAIR      34  29  82 NW10      29.90S WCI  26

$$
NMZ407-409-411-412-211200-
SOUTHERN DESERTS

CITY           SKY/WX    TMP DP  RH WIND       PRES   REMARKS
DEMING         FAIR      42  27  55 W8        29.89R
LAS CRUCES     FAIR      44  28  54 W15       29.88S
HOLLOMAN AFB   FAIR      47  24  40 CALM      29.85S
ALAMOGORDO     FAIR      39  23  52 E3        29.84S
T OR C         FAIR      44  25  47 CALM      29.82S

$$
NMZ519>523-211200-
CENTRAL VALLEYS/CENTRAL HIGHLANDS

CITY           SKY/WX    TMP DP  RH WIND       PRES   REMARKS
ALBUQUERQUE    CLOUDY    41  30  65 SW9       29.75F
DOUBLE EAGLE   CLOUDY    37  31  77 SW14      29.74F WCI  29
MORIARTY ARPT  FAIR      37  30  77 W7        29.73F WCI  31
CLINES CORNERS MOCLDY    32  27  81 W23G31    29.70F WCI  19
BELEN          FAIR      40  29  64 W10       29.78F WCI  34
SOCORRO        FAIR      45  26  48 CALM      29.80S

$$
NMZ524>526-539-540-211200-
SOUTHCENTRAL MOUNTAINS

CITY           SKY/WX    TMP DP  RH WIND       PRES   REMARKS
RUIDOSO        FAIR      36  19  51 W16G22    29.80S WCI  26

$$
NMZ527>531-211200-
NORTHEAST HIGHLANDS/NORTHEAST PLAINS

CITY           SKY/WX    TMP DP  RH WIND       PRES   REMARKS
LAS VEGAS      FAIR      36  22  56 W15G26    29.57F WCI  27
RATON          CLOUDY    37  29  72 VRB5      29.50F WCI  33
CLAYTON        MOCLDY    40  36  86 NW16G28   29.45F WCI  31

$$
NMZ532>537-211200-
EASTCENTRAL PLAINS

CITY           SKY/WX    TMP DP  RH WIND       PRES   REMARKS
SANTA ROSA     FAIR      42  32  68 W10       29.62F
TUCUMCARI      FAIR      47  32  56 W24G36    29.50F
CANNON AFB     FAIR      44  29  56 W22G29    29.61F
CLOVIS AIRPORT FAIR      44  30  57 W21G28    29.60F

$$
NMZ028-029-538-211200-
SOUTHEAST PLAINS

CITY           SKY/WX    TMP DP  RH WIND       PRES   REMARKS
ROSWELL        FAIR      46  22  38 SW7       29.71S
ARTESIA        FAIR      52  21  30 W23G29    29.71F
CARLSBAD       FAIR      53  20  27 W12       29.73F
HOBBS          FAIR      46  21  36 W5        29.74F


$$



USA.gov is the U.S. government's official web portal to all federal, state and local government web resources and services.